TimeCDT,TemperatureF,Dew PointF,Humidity,Sea Level PressureIn,VisibilityMPH,Wind Direction,Wind SpeedMPH,Gust SpeedMPH,PrecipitationIn,Events,Conditions,WindDirDegrees,DateUTC
12:15 AM,69.8,62.6,78,30.12,10.0,SSE,9.2,-,N/A,,Clear,160,2012-10-13 05:15:00
12:55 AM,68.0,60.8,78,30.11,10.0,SSE,8.1,-,N/A,,Clear,150,2012-10-13 05:55:00
1:15 AM,68.0,60.8,78,30.10,10.0,SSE,9.2,-,N/A,,Clear,150,2012-10-13 06:15:00
1:35 AM,66.2,60.8,83,30.10,10.0,SE,8.1,-,N/A,,Clear,130,2012-10-13 06:35:00
1:55 AM,66.2,60.8,83,30.09,10.0,SE,9.2,-,N/A,,Clear,130,2012-10-13 06:55:00
2:15 AM,66.2,60.8,83,30.09,10.0,SE,9.2,-,N/A,,Clear,130,2012-10-13 07:15:00
2:35 AM,64.4,60.8,88,30.08,10.0,ESE,9.2,-,N/A,,Clear,120,2012-10-13 07:35:00
2:55 AM,64.4,60.8,88,30.08,10.0,SE,8.1,-,N/A,,Clear,130,2012-10-13 07:55:00
3:15 AM,64.4,60.8,88,30.08,10.0,ESE,9.2,-,N/A,,Clear,120,2012-10-13 08:15:00
3:35 AM,64.4,60.8,88,30.07,10.0,ESE,8.1,-,N/A,,Clear,120,2012-10-13 08:35:00
3:55 AM,64.4,60.8,88,30.08,10.0,SE,8.1,-,N/A,,Clear,130,2012-10-13 08:55:00
4:15 AM,64.4,60.8,88,30.08,10.0,SE,10.4,-,N/A,,Clear,130,2012-10-13 09:15:00
4:35 AM,64.4,60.8,88,30.08,10.0,ESE,9.2,-,N/A,,Clear,120,2012-10-13 09:35:00
4:55 AM,64.4,60.8,88,30.08,10.0,SE,9.2,-,N/A,,Clear,130,2012-10-13 09:55:00
5:15 AM,62.6,60.8,94,30.08,10.0,ESE,9.2,-,N/A,,Clear,120,2012-10-13 10:15:00
5:35 AM,62.6,60.8,94,30.08,10.0,ESE,9.2,-,N/A,,Clear,120,2012-10-13 10:35:00
5:55 AM,62.6,60.8,94,30.08,10.0,ESE,10.4,-,N/A,,Clear,120,2012-10-13 10:55:00
6:15 AM,62.6,60.8,94,30.08,10.0,SE,10.4,-,N/A,,Clear,130,2012-10-13 11:15:00
6:35 AM,64.4,62.6,94,30.09,10.0,South,6.9,-,N/A,,Mostly Cloudy,170,2012-10-13 11:35:00
6:55 AM,66.2,64.4,94,30.09,10.0,SSE,8.1,-,N/A,,Overcast,150,2012-10-13 11:55:00
7:15 AM,66.2,64.4,94,30.10,10.0,South,6.9,-,N/A,,Overcast,170,2012-10-13 12:15:00
7:35 AM,66.2,64.4,94,30.10,10.0,SE,10.4,-,N/A,,Overcast,140,2012-10-13 12:35:00
7:55 AM,66.2,64.4,94,30.09,10.0,SE,10.4,-,N/A,,Overcast,130,2012-10-13 12:55:00
8:15 AM,66.2,64.4,94,30.09,10.0,SE,10.4,-,N/A,,Overcast,130,2012-10-13 13:15:00
8:55 AM,69.8,66.2,88,30.10,10.0,SE,11.5,-,N/A,,Overcast,140,2012-10-13 13:55:00
9:35 AM,71.6,66.2,83,30.11,10.0,South,12.7,-,N/A,,Overcast,170,2012-10-13 14:35:00
9:55 AM,71.6,68.0,88,30.10,10.0,SSE,12.7,16.1,N/A,,Overcast,160,2012-10-13 14:55:00
10:35 AM,73.4,68.0,83,30.09,10.0,SSE,12.7,-,N/A,,Overcast,160,2012-10-13 15:35:00
10:55 AM,73.4,68.0,83,30.09,10.0,SSE,17.3,-,N/A,,Overcast,160,2012-10-13 15:55:00
11:15 AM,73.4,69.8,88,30.08,10.0,South,12.7,-,N/A,,Overcast,170,2012-10-13 16:15:00
11:35 AM,73.4,69.8,88,30.07,10.0,South,13.8,-,N/A,,Overcast,180,2012-10-13 16:35:00
11:55 AM,75.2,69.8,83,30.06,10.0,South,12.7,-,N/A,,Overcast,170,2012-10-13 16:55:00
12:15 PM,75.2,69.8,83,30.04,10.0,South,13.8,-,N/A,,Overcast,180,2012-10-13 17:15:00
12:35 PM,78.8,69.8,74,30.03,10.0,South,19.6,24.2,N/A,,Overcast,180,2012-10-13 17:35:00
12:55 PM,80.6,69.8,70,30.02,10.0,South,20.7,27.6,N/A,,Mostly Cloudy,190,2012-10-13 17:55:00
1:15 PM,82.4,68.0,62,30.00,10.0,South,17.3,29.9,N/A,,Mostly Cloudy,190,2012-10-13 18:15:00
1:35 PM,82.4,66.2,58,29.98,10.0,South,20.7,31.1,N/A,,Mostly Cloudy,180,2012-10-13 18:35:00
1:55 PM,82.4,66.2,58,29.97,10.0,South,23.0,28.8,N/A,,Mostly Cloudy,170,2012-10-13 18:55:00
2:15 PM,82.4,68.0,62,29.97,10.0,South,20.7,26.5,N/A,,Overcast,190,2012-10-13 19:15:00
2:35 PM,82.4,66.2,58,29.96,10.0,South,21.9,28.8,N/A,,Overcast,180,2012-10-13 19:35:00
2:55 PM,84.2,64.4,51,29.94,10.0,South,19.6,27.6,N/A,,Overcast,190,2012-10-13 19:55:00
3:15 PM,84.2,66.2,55,29.93,10.0,South,20.7,31.1,N/A,,Mostly Cloudy,190,2012-10-13 20:15:00
3:35 PM,87.8,64.4,46,29.92,10.0,SSW,26.5,33.4,N/A,,Mostly Cloudy,200,2012-10-13 20:35:00
3:55 PM,86.0,64.4,48,29.92,10.0,South,26.5,32.2,N/A,,Mostly Cloudy,190,2012-10-13 20:55:00
4:15 PM,86.0,64.4,48,29.91,10.0,South,27.6,33.4,N/A,,Mostly Cloudy,180,2012-10-13 21:15:00
4:35 PM,84.2,64.4,51,29.90,10.0,South,23.0,34.5,N/A,,Mostly Cloudy,190,2012-10-13 21:35:00
4:55 PM,82.4,62.6,51,29.90,10.0,South,24.2,31.1,N/A,,Overcast,190,2012-10-13 21:55:00
5:15 PM,82.4,62.6,51,29.89,10.0,South,25.3,31.1,N/A,,Mostly Cloudy,190,2012-10-13 22:15:00
5:35 PM,82.4,62.6,51,29.87,10.0,South,18.4,26.5,N/A,,Overcast,180,2012-10-13 22:35:00
5:55 PM,82.4,62.6,51,29.86,10.0,South,19.6,27.6,N/A,,Scattered Clouds,180,2012-10-13 22:55:00
6:15 PM,82.4,64.4,54,29.86,10.0,South,17.3,27.6,N/A,,Mostly Cloudy,180,2012-10-13 23:15:00
6:35 PM,80.6,62.6,54,29.87,10.0,South,17.3,28.8,N/A,,Overcast,190,2012-10-13 23:35:00
6:55 PM,80.6,62.6,54,29.87,10.0,South,20.7,25.3,N/A,,Overcast,190,2012-10-13 23:55:00
7:35 PM,78.8,64.4,61,29.87,10.0,South,15.0,-,N/A,,Overcast,180,2012-10-14 00:35:00
7:55 PM,78.8,64.4,61,29.87,10.0,South,13.8,18.4,N/A,,Overcast,170,2012-10-14 00:55:00
8:35 PM,75.2,66.2,73,29.86,10.0,South,11.5,-,N/A,,Overcast,180,2012-10-14 01:35:00
9:15 PM,73.4,68.0,83,29.88,9.0,SSW,12.7,-,0.04,,Mostly Cloudy,210,2012-10-14 02:15:00
9:35 PM,71.6,68.0,88,29.88,9.0,South,10.4,-,0.10,,Mostly Cloudy,190,2012-10-14 02:35:00
9:55 PM,71.6,69.8,94,29.88,10.0,South,9.2,-,0.10,,Mostly Cloudy,190,2012-10-14 02:55:00
10:15 PM,69.8,69.8,100,29.86,10.0,South,9.2,-,N/A,,Scattered Clouds,180,2012-10-14 03:15:00
11:15 PM,71.6,69.8,94,29.87,10.0,SSW,12.7,-,N/A,,Partly Cloudy,200,2012-10-14 04:15:00
11:35 PM,71.6,69.8,94,29.91,10.0,WNW,25.3,34.5,N/A,Thunderstorm,Mostly Cloudy,290,2012-10-14 04:35:00